Portada
METAR-TAF:

METAR-TAF

Aeroports :

Tri-Township Airport

Savanna, Illinois, Estats Units d'Amèrica

latitud: 42-02-45N, longitud: 090-06-28W, altitud: 188 m

Observació

L'informe es va fer fa 27 minuts, a les 09:37 UTC
Vent 4 kt del Sud-Est
Temperatura 18°C
Humitat 94%
Pressió 1012 hPa
Visibilitat: 11.3 km
Núvols disperses a una alçada de 2200 ft
Núvols disperses a una alçada de 3800 ft
Cel cobert a una alçada de 6500 ft

METAR: KSFY 250937Z AUTO 14004KT 7SM SCT022 SCT038 OVC065 18/17 A2988 RMK AO2 LTG DSNT SE

Hora: 05:04 (10:04 UTC)


TAF: manca

Observacions i pronòstics meteorològics de més de 4000 aeroports (METAR i TAF).

Les estacions disponibles són els punts grocs i vermells al mapa.

Posi el ratolí al punt desitjat per veure el nom de l'estació.

Feu clic per veure les observacions i els pronòstics meteorològics.

Per canviar el mapa: feu clic els botons verds amb una creu de color negre per apropar; al botó verd amb un guió per allunyar la imatge; o en les fletxes verdes per a mapes adjacents.


METAR-TAF: